IRIDIUM 106 1 41917U 17003A 26171.30484000 .00000064 00000+0 15722-4 0 9999 2 41917 86.3961 87.2531 0001888 88.0933 272.0479 14.34218046493650 IRIDIUM 103 1 41918U 17003B 26171.29215571 .00000084 00000+0 22760-4 0 9995 2 41918 86.3963 87.1582 0002252 77.6062 282.5386 14.34218100493677 IRIDIUM 109 1 41919U 17003C 26171.29849818 .00000059 00000+0 14086-4 0 9997 2 41919 86.3963 87.2150 0002270 82.8400 277.3054 14.34218080493642 IRIDIUM 102 1 41920U 17003D 26170.84816785 .00000212 00000+0 68558-4 0 9990 2 41920 86.3962 87.3268 0002242 86.3510 273.7942 14.34220414493666 IRIDIUM 105 1 41921U 17003E 26171.43469079 .00000181 00000+0 57451-4 0 9992 2 41921 86.3962 55.5125 0002510 82.1327 278.0153 14.34217399495600 IRIDIUM 104 1 41922U 17003F 26171.27947075 .00000057 00000+0 13318-4 0 9998 2 41922 86.3963 87.1891 0002401 79.6294 280.5172 14.34217984493715 IRIDIUM 114 1 41923U 17003G 26171.28581295 .00000007 00000+0 -44811-5 0 9997 2 41923 86.3963 87.1696 0002201 80.0689 280.0755 14.34217653493693 IRIDIUM 108 1 41924U 17003H 26171.17455725 .00000187 00000+0 59531-4 0 9996 2 41924 86.3956 55.5112 0002248 86.4092 273.7360 14.34220707495537 IRIDIUM 112 1 41925U 17003J 26171.27312800 -.00000203 00000+0 -79622-4 0 9998 2 41925 86.3958 87.0169 0002257 82.7525 277.3927 14.34217216493710 IRIDIUM 111 1 41926U 17003K 26171.26045009 .00000210 00000+0 67928-4 0 9994 2 41926 86.3960 87.0928 0002237 83.0207 277.1243 14.34219109493695 IRIDIUM 113 1 42803U 17039A 26171.44971282 .00000038 00000+0 66597-5 0 9999 2 42803 86.3973 320.8144 0002270 89.2789 270.8667 14.34217806471656 IRIDIUM 123 1 42804U 17039B 26171.42142207 .00000006 00000+0 -48707-5 0 9994 2 42804 86.3967 352.2849 0001863 87.4183 272.7226 14.34217511470414 IRIDIUM 120 1 42805U 17039C 26171.44337104 .00000198 00000+0 63582-4 0 9997 2 42805 86.3963 320.5991 0002060 96.6184 263.5246 14.34217694471648 IRIDIUM 115 1 42806U 17039D 26171.44645499 .00000260 00000+0 71235-4 0 9991 2 42806 86.4499 320.7270 0002005 92.4155 267.7275 14.43277662474739 IRIDIUM 118 1 42807U 17039E 26171.45313488 .00000157 00000+0 49050-4 0 9998 2 42807 86.3973 352.2697 0002204 89.0804 271.0645 14.34217720470412 IRIDIUM 117 1 42808U 17039F 26171.47216308 .00000029 00000+0 31566-5 0 9996 2 42808 86.3966 352.2193 0002007 87.5461 272.5964 14.34217704470444 IRIDIUM 126 1 42809U 17039G 26171.21845740 .00000186 00000+0 59351-4 0 9992 2 42809 86.3973 352.3763 0002201 87.4579 272.6868 14.34217921470380 IRIDIUM 124 1 42810U 17039H 26171.38027287 .00000269 00000+0 74034-4 0 9997 2 42810 86.4485 289.0234 0002200 94.0030 266.1422 14.43279693475579 IRIDIUM 128 1 42811U 17039J 26170.99989226 .00000001 00000+0 -65930-5 0 9995 2 42811 86.3962 23.9741 0001908 89.5163 270.6251 14.34217482470389 IRIDIUM 121 1 42812U 17039K 26171.44679271 .00000132 00000+0 40133-4 0 9994 2 42812 86.3972 352.3087 0002163 91.8638 268.2805 14.34218028470295 IRIDIUM 133 1 42955U 17061A 26171.31067931 .00000063 00000+0 15581-4 0 9999 2 42955 86.3967 23.9621 0002095 87.7082 272.4354 14.34217626455228 IRIDIUM 100 1 42956U 17061B 26171.30433654 .00000086 00000+0 23737-4 0 9995 2 42956 86.3966 23.8833 0002146 87.6495 272.4946 14.34217708455224 IRIDIUM 122 1 42957U 17061C 26171.06331833 .00000008 00000+0 -42108-5 0 9994 2 42957 86.3962 23.9841 0002037 84.1816 275.9612 14.34217582455193 IRIDIUM 129 1 42958U 17061D 26171.29799306 .00000098 00000+0 28001-4 0 9996 2 42958 86.3967 23.9534 0002386 84.8459 275.3009 14.34218627455246 IRIDIUM 119 1 42959U 17061E 26171.33604563 .00000164 00000+0 51358-4 0 9997 2 42959 86.3967 23.9331 0002191 84.0903 276.0543 14.34219640455261 IRIDIUM 107 1 42960U 17061F 26171.00623467 .00000177 00000+0 56141-4 0 9996 2 42960 86.3967 24.0921 0001913 83.2895 276.8518 14.34218101455229 IRIDIUM 132 1 42961U 17061G 26171.29165079 .00000074 00000+0 19333-4 0 9996 2 42961 86.3966 23.9523 0002143 85.6776 274.4665 14.34218268455260 IRIDIUM 136 1 42962U 17061H 26171.32337043 .00000166 00000+0 52337-4 0 9996 2 42962 86.3966 23.9454 0002249 92.8023 267.3430 14.34217235455282 IRIDIUM 139 1 42963U 17061J 26171.32970705 .00000017 00000+0 -11454-5 0 9997 2 42963 86.3965 24.0052 0001972 88.6940 271.4482 14.34217601455292 IRIDIUM 125 1 42964U 17061K 26171.31703463 .00000177 00000+0 56131-4 0 9998 2 42964 86.3970 24.0716 0002086 73.0592 287.0832 14.34215545455303 IRIDIUM 135 1 43070U 17083A 26171.36091678 .00000052 00000+0 11575-4 0 9999 2 43070 86.3968 320.6881 0002182 91.7844 268.3601 14.34217748444605 IRIDIUM 138 1 43071U 17083B 26171.45605525 .00000040 00000+0 73251-5 0 9999 2 43071 86.3981 320.3442 0002295 86.7945 273.3514 14.34217598444604 IRIDIUM 116 1 43072U 17083C 26171.42434198 .00000005 00000+0 -54342-5 0 9995 2 43072 86.3962 320.6477 0001915 100.4565 259.6846 14.34217502444638 IRIDIUM 130 1 43073U 17083D 26171.39262245 .00000179 00000+0 57032-4 0 9993 2 43073 86.3974 320.9363 0001949 93.8613 266.2806 14.34220012444578 IRIDIUM 151 1 43074U 17083E 26171.43702801 .00000045 00000+0 90478-5 0 9990 2 43074 86.3968 320.7000 0002145 93.1387 267.0054 14.34217680444603 IRIDIUM 134 1 43075U 17083F 26171.40531435 .00000192 00000+0 61567-4 0 9990 2 43075 86.3970 320.7214 0002099 92.4966 267.6470 14.34218431444565 IRIDIUM 137 1 43076U 17083G 26171.41799994 .00000000 00000+0 -70974-5 0 9990 2 43076 86.3967 320.8092 0002244 103.8470 256.2976 14.34217468444638 IRIDIUM 141 1 43077U 17083H 26171.41165677 -.00000016 00000+0 -12927-4 0 9997 2 43077 86.3962 320.6422 0002094 90.7699 269.3737 14.34217440444639 IRIDIUM 153 1 43078U 17083J 26171.36383584 .00000057 00000+0 13331-4 0 9994 2 43078 86.3962 289.1424 0002215 90.0153 270.1296 14.34217910445738 IRIDIUM 131 1 43079U 17083K 26171.39897108 .00000100 00000+0 28690-4 0 9993 2 43079 86.3972 320.8335 0002222 91.9806 268.1644 14.34217700444568 IRIDIUM 144 1 43249U 18030A 26171.37017809 .00000210 00000+0 67981-4 0 9993 2 43249 86.3961 289.0687 0002142 97.7546 262.3893 14.34218182430592 IRIDIUM 149 1 43250U 18030B 26171.37652126 .00000068 00000+0 17392-4 0 9994 2 43250 86.3959 289.0331 0002266 93.5706 266.5749 14.34217939430614 IRIDIUM 157 1 43251U 18030C 26171.39554921 .00000069 00000+0 17534-4 0 9990 2 43251 86.3962 289.0785 0002210 94.1526 265.9923 14.34217878430594 IRIDIUM 140 1 43252U 18030D 26171.41457655 .00000081 00000+0 21911-4 0 9998 2 43252 86.3961 289.0831 0002149 94.4266 265.7176 14.34218039430656 IRIDIUM 145 1 43253U 18030E 26171.40189132 .00000063 00000+0 15440-4 0 9990 2 43253 86.3962 289.0607 0002064 102.1429 257.9998 14.34217854430584 IRIDIUM 146 1 43254U 18030F 26171.38286245 .00000177 00000+0 56275-4 0 9998 2 43254 86.3961 289.0808 0002133 97.8312 262.3126 14.34217191430593 IRIDIUM 148 1 43255U 18030G 26171.35115119 .00000060 00000+0 14450-4 0 9997 2 43255 86.3963 289.1373 0002305 96.2973 263.8486 14.34217889430624 IRIDIUM 142 1 43256U 18030H 26171.38920678 .00000075 00000+0 19710-4 0 9995 2 43256 86.3960 289.0103 0002130 99.0648 261.0789 14.34217798430599 IRIDIUM 150 1 43257U 18030J 26171.35749331 .00000039 00000+0 67940-5 0 9997 2 43257 86.3962 289.1398 0002153 94.2809 265.8633 14.34217757430618 IRIDIUM 143 1 43258U 18030K 26171.40823396 .00000108 00000+0 31381-4 0 9994 2 43258 86.3966 289.2114 0002135 96.8149 263.3289 14.34218119430551 IRIDIUM 161 1 43478U 18047C 26171.28888392 .00000286 00000+0 78987-4 0 9999 2 43478 86.4482 87.1745 0002568 83.3146 276.8347 14.43280100425582 IRIDIUM 152 1 43479U 18047D 26171.31118420 .00000206 00000+0 66370-4 0 9997 2 43479 86.3956 87.0263 0002328 82.8248 277.3212 14.34218292422939 IRIDIUM 147 1 43480U 18047E 26171.31752623 .00000081 00000+0 21948-4 0 9991 2 43480 86.3959 87.0290 0002147 86.2008 273.9433 14.34218058422932 IRIDIUM 110 1 43481U 18047F 26171.32386912 .00000167 00000+0 52403-4 0 9992 2 43481 86.3960 87.1182 0002538 80.8268 279.3215 14.34218484422928 IRIDIUM 162 1 43482U 18047G 26171.28258397 .00000266 00000+0 73032-4 0 9994 2 43482 86.4482 87.0682 0002254 82.5309 277.6148 14.43283267425574 IRIDIUM 160 1 43569U 18061A 26171.40924192 -.00000006 00000+0 -92041-5 0 9999 2 43569 86.3958 55.4502 0002176 85.4709 274.6735 14.34217420413839 IRIDIUM 166 1 43570U 18061B 26171.43461166 .00000046 00000+0 91983-5 0 9997 2 43570 86.3959 55.3901 0002138 87.2648 272.8793 14.34217963413863 IRIDIUM 158 1 43571U 18061C 26171.40289899 .00000061 00000+0 14606-4 0 9999 2 43571 86.3959 55.4133 0002195 83.0622 277.0823 14.34217742413823 IRIDIUM 165 1 43572U 18061D 26171.42826949 .00000033 00000+0 48641-5 0 9991 2 43572 86.3960 55.4492 0002077 87.4874 272.6560 14.34217444413851 IRIDIUM 155 1 43573U 18061E 26171.39021337 .00000014 00000+0 -19774-5 0 9991 2 43573 86.3954 55.3337 0001983 83.1728 276.9694 14.34217628413813 IRIDIUM 154 1 43574U 18061F 26171.44095338 .00000165 00000+0 52021-4 0 9997 2 43574 86.3960 55.4465 0002157 88.8669 271.2774 14.34217651413873 IRIDIUM 163 1 43575U 18061G 26171.42192557 .00000078 00000+0 20884-4 0 9992 2 43575 86.3957 55.3697 0002234 83.5171 276.6279 14.34217054413845 IRIDIUM 156 1 43576U 18061H 26171.39656089 .00000206 00000+0 66320-4 0 9992 2 43576 86.3959 55.3875 0002040 83.6900 276.4528 14.34216473413830 IRIDIUM 164 1 43577U 18061J 26171.37752869 .00000017 00000+0 -10898-5 0 9995 2 43577 86.3958 55.4358 0002169 89.5185 270.6259 14.34217185413871 IRIDIUM 159 1 43578U 18061K 26171.41558407 .00000069 00000+0 17727-4 0 9996 2 43578 86.3958 55.3567 0002265 84.1741 275.9713 14.34218045413845 IRIDIUM 180 1 43922U 19002A 26171.41507994 .00000102 00000+0 29462-4 0 9997 2 43922 86.3972 352.2478 0002259 89.2789 270.8666 14.34217731389456 IRIDIUM 176 1 43923U 19002B 26171.42134867 .00000578 00000+0 87686-4 0 9993 2 43923 86.6092 352.1881 0002328 93.4267 266.7217 14.72270591399727 IRIDIUM 168 1 43924U 19002C 26171.47849925 .00000174 00000+0 54932-4 0 9997 2 43924 86.3974 352.2986 0002212 89.9105 270.2344 14.34220159389446 IRIDIUM 173 1 43925U 19002D 26170.97744161 .00000181 00000+0 57398-4 0 9995 2 43925 86.3969 352.3968 0002179 87.6004 272.5441 14.34217706389354 IRIDIUM 169 1 43926U 19002E 26171.31269502 .00000205 00000+0 60469-4 0 9996 2 43926 86.4222 23.8864 0001762 75.2300 284.9093 14.38610217390677 IRIDIUM 172 1 43927U 19002F 26171.45947315 .00000160 00000+0 50236-4 0 9998 2 43927 86.3971 352.2033 0002252 88.6812 271.4642 14.34219590389434 IRIDIUM 175 1 43928U 19002G 26171.39501235 .00000252 00000+0 68437-4 0 9993 2 43928 86.4515 289.1799 0002926 169.7310 190.3951 14.43614192399440 IRIDIUM 171 1 43929U 19002H 26171.44045036 .00000007 00000+0 -46740-5 0 9995 2 43929 86.3975 352.5178 0001930 91.8050 268.3367 14.34217480389429 IRIDIUM 170 1 43930U 19002J 26171.42752802 .00000570 00000+0 86449-4 0 9994 2 43930 86.6092 352.1879 0002360 89.9560 270.1927 14.72271038399739 IRIDIUM 167 1 43931U 19002K 26171.43410744 .00000005 00000+0 -51866-5 0 9992 2 43931 86.3966 352.2364 0001784 94.1066 266.0334 14.34217494389420 IRIDIUM 181 1 56726U 23068S 26171.43426507 .00000233 00000+0 63245-4 0 9994 2 56726 86.4498 55.4334 0002392 88.7656 271.3819 14.43308086162903 IRIDIUM 177 1 56727U 23068T 26171.43225514 .00000780 00000+0 99100-4 0 9996 2 56727 86.1964 327.2497 0002355 88.7713 271.3778 14.80229741166844 IRIDIUM 174 1 56728U 23068U 26171.41519924 .00000592 00000+0 90019-4 0 9997 2 56728 86.6099 352.3407 0002429 84.2983 275.8511 14.72267531166496 IRIDIUM 178 1 56729U 23068V 26171.01576917 .00000720 00000+0 91293-4 0 9997 2 56729 86.6536 24.1779 0002608 85.3465 274.8055 14.80237780166781 IRIDIUM 179 1 56730U 23068W 26171.34838329 .00000700 00000+0 88708-4 0 9998 2 56730 86.6772 33.0280 0002470 88.2467 271.9038 14.80235509166834